Regional Weather Roundup
Issued by NWS

Home | Current Version | Previous Version | Text Only | Print | Product List | Glossary Off
Versions: 1 2 3 4 5 6 7 8 9 10 11 12 13 14 15 16 17 18 19 20 21 22 23 24 25 26 27 28 29 30 31 32 33 34 35 36 37 38 39 40 41 42 43 44 45 46 47 48 49 50

000
ASUS43 KMPX 310010
RWRMN
WEATHER ROUNDUP FOR MINNESOTA
NATIONAL WEATHER SERVICE TWIN CITIES/CHANHASSEN MN
700 PM CDT THU JUL 30 2015


NOTE: "FAIR" INDICATES FEW OR NO CLOUDS BELOW 12,000 FEET WITH NO
SIGNIFICANT WEATHER AND/OR OBSTRUCTIONS TO VISIBILITY. N/A MEANS
CURRENT SKY AND/OR WEATHER CONDITIONS ARE NOT AVAILABLE.

MNZ060>063-068>070-310100-
   Twin Cities Metro

CITY           SKY/WX    TMP DP  RH WIND       PRES   REMARKS
TWIN CITIES    MOSUNNY   83  56  39 W15       30.01F
6HR MIN TEMP:  82; 6HR MAX TEMP:  85;

ST PAUL        MOSUNNY   82  56  40 W16G26    30.00F
CRYSTAL        SUNNY     83  54  36 W13       30.00F
BLAINE         MOSUNNY   82  57  42 W12G18    30.00F
LAKEVILLE      SUNNY     79  61  53 W7        30.03F
EDEN PRAIRIE   SUNNY     82  59  45 W8        30.01F
6HR MIN TEMP:  82; 6HR MAX TEMP:  85;

SOUTH ST PAUL  SUNNY     83  52  33 W13G21    30.00F
LAKE ELMO      FAIR      81  57  44 W13       30.02S
$$
MNZ001>005-007-008-013>017-022>024-027-028-310100-
   Northwest Minnesota

CITY           SKY/WX    TMP DP  RH WIND       PRES   REMARKS
BEMIDJI        MOSUNNY   77  54  44 W16       29.97F
HALLOCK        MOSUNNY   79  45  29 NW16G26   29.93S
ROSEAU         SUNNY     73  57  56 W9G20     29.91F
WARROAD        MOSUNNY   73  61  64 W6        29.91S
THIEF RVR FALL MOSUNNY   79  52  38 W17G25    29.96S
CROOKSTON      MOSUNNY   79  54  41 NW13G21   29.98S
FOSSTON        SUNNY     79  55  44 W15       29.99S
DETROIT LAKES  SUNNY     79  52  38 W17G24    30.04S
MOORHEAD       SUNNY     79  54  41 NW16      30.02S
PARK RAPIDS    SUNNY     78  51  38 W17G26    30.00F
MAHNOMEN       FAIR      76  56  48 W13G22    30.00S
$$
MNZ006-009>011-018-025>026-310100-
   North Central Minnesota

CITY           SKY/WX    TMP DP  RH WIND       PRES   REMARKS
BAUDETTE       MOSUNNY   75  53  46 W15G24    29.90S
FLAG ISLAND    MOSUNNY   73  52  46 W10       29.87S
INTL FALLS     SUNNY     76  53  44 W16G30    29.88S
6HR MIN TEMP:  73; 6HR MAX TEMP:  79; 6HR PCP: TRACE;

WASKISH        SUNNY     75  61  60 W12       29.92F
BIG FORK       SUNNY     77  54  44 W9        29.93S
LONGVILLE      MOSUNNY   77  54  44 W10G20    29.98S
GRAND RAPIDS   SUNNY     77  52  41 W14G20    29.96S
CRANE LAKE     MOSUNNY   75  52  43 W8        29.89R
ORR            MOSUNNY   77  50  38 W8        29.88S
COOK           MOSUNNY   77  54  44 W12G20    29.91S
WALKER         FAIR      76  53  44 W12G20    29.98S
$$
MNZ012-019>021-037-310100-
   Northeast Minnesota

CITY           SKY/WX    TMP DP  RH WIND       PRES   REMARKS
DULUTH         MOSUNNY   79  53  40 W13G22    29.93S
6HR MIN TEMP:  78; 6HR MAX TEMP:  82;

ELY            PTSUNNY   75  54  46 W13       29.88S
HIBBING        SUNNY     77  51  40 W12G21    29.93R
EVELETH        SUNNY     77  48  36 W17G25    29.93S
DULUTH HARBOR  SUNNY     81  55  41 W22G28    29.90S
TWO HARBORS    MOSUNNY   81  57  44 W13G22    29.88S
SILVER BAY     MOSUNNY   79  55  44 SW3       29.86F
GRAND MARAIS     N/A     57  49  74 W3        29.82F
G MARAIS ARPRT SUNNY     70  55  60 SW5       29.88S
$$
MNZ029>031-032-039>041-046>048-054>057-064-310100-
   West Central Minnesota

CITY           SKY/WX    TMP DP  RH WIND       PRES   REMARKS
FERGUS FALLS   MOSUNNY   79  57  47 NW14      30.01F
WHEATON        SUNNY     79  59  50 NW9       30.05F
MORRIS         SUNNY     81  63  54 NW7       30.03S
ALEXANDRIA     SUNNY     79  57  46 NW15      30.05F
ELBOW LAKE     FAIR      78  59  51 NW13      30.04S
WADENA         MOSUNNY   79  54  41 NW12G20   30.02S
GLENWOOD       SUNNY     81  57  44 W14G21    30.05F
APPLETON       SUNNY     82  61  47 W6        30.02F
BENSON         SUNNY     82  59  44 N6        30.03F
ORTONVILLE     SUNNY     84  57  39 W9        30.04S HAZE
MADISON        LGT RAIN  84  61  45 W5        30.04F
WILLMAR        FAIR      82  61  47 W7        30.05F
$$
MNZ033>034-036-042>043-049>051-058-059-310100-
   Central Minnesota

CITY           SKY/WX    TMP DP  RH WIND       PRES   REMARKS
ST CLOUD       SUNNY     81  57  43 W14       30.01F
6HR MIN TEMP:  80; 6HR MAX TEMP:  84;

SAUK CENTRE    FAIR      78  60  52 W12       30.04S
PAYNESVILLE    SUNNY     78  57  47 SW10      30.04F
AITKIN         SUNNY     79  55  44 W5        29.96S
PINE RIVER     MOSUNNY   79  55  44 W8G21     30.02S
BRAINERD       MOSUNNY   79  54  41 W12       29.99F
STAPLES        SUNNY     77  54  44 W12       30.01S
LONG PRAIRIE   FAIR      79  55  44 W15       30.03F
LITTLE FALLS   SUNNY     79  54  41 W9        30.01F
LITCHFIELD     SUNNY     82  61  47 W6        30.04F
BUFFALO        SUNNY     81  58  45 W9        30.03F
MAPLE LAKE     SUNNY     82  59  44 W8G18     30.03F
$$
MNZ037-044-045-052-053-310100-
   East Central Minnesota

CITY           SKY/WX    TMP DP  RH WIND       PRES   REMARKS
PRINCETON      SUNNY     81  57  44 W10       30.00F
MORA           MOSUNNY   77  54  44 W9        30.00F
CAMBRIDGE      SUNNY     82  63  51 W9        29.98F
RUSH CITY      SUNNY     78  58  50 W7        29.99F
MOOSE LAKE     SUNNY     77  54  44 W12G18    29.94F
HINCKLEY       FAIR      79  55  44 W14G22    29.97F
CLOQUET        MOSUNNY   79  48  34 W14G20    29.94S
MCGREGOR       MOSUNNY   79  54  41 W9G17     29.97S
$$
MNZ071>073-080-081-089-090-097-098-310100-
   Southwest Minnesota

CITY           SKY/WX    TMP DP  RH WIND       PRES   REMARKS
MONTEVIDEO     SUNNY     84  59  42 NW3       30.05F
GRANITE FALLS  SUNNY     82  64  55 W5        30.06F
CANBY          SUNNY     83  56  39 W8        30.06F
MARSHALL       SUNNY     82  57  42 W9        30.08F
REDWOOD FALLS  SUNNY     84  58  40 W10       30.04F
OLIVIA         SUNNY     79  59  50 W7        30.04F
PIPESTONE      SUNNY     81  61  50 W6        30.11F
WINDOM         SUNNY     82  63  51 W6        30.09F
WORTHINGTON    SUNNY     81  63  54 W7        30.11F
JACKSON        SUNNY     82  59  44 W9        30.10F
TRACY          SUNNY     82  63  51 CALM      30.08F
SLAYTON        SUNNY     82  60  48 CALM      30.11F
$$
MNZ065>067-074>077-082>085-091>093-310100-
   South Central Minnesota

CITY           SKY/WX    TMP DP  RH WIND       PRES   REMARKS
MANKATO        SUNNY     81  57  44 W8        30.05F
NEW ULM        SUNNY     81  61  50 W5        30.05F
ST JAMES       SUNNY     84  61  45 SW6       30.07F
FAIRMONT       SUNNY     82  59  44 W6        30.08F
GLENCOE        SUNNY     82  64  53 W3        30.03F
FARIBAULT      SUNNY     81  61  50 W6        30.05F
OWATONNA       SUNNY     81  63  54 W5        30.06F
WASECA         SUNNY     77  63  61 W5        30.07F
ALBERT LEA     SUNNY     81  61  50 W5        30.07F
$$
MNZ078>079-086>088-094>096-310100-
   Southeast Minnesota

CITY           SKY/WX    TMP DP  RH WIND       PRES   REMARKS
ROCHESTER      SUNNY     78  62  57 W8        30.06F
6HR MIN TEMP:  78; 6HR MAX TEMP:  81;

RED WING       SUNNY     84  55  37 W12       29.99F
STANTON        SUNNY     81  60  48 W8        30.02F
DODGE CENTER   SUNNY     79  57  47 W8        30.06F
WINONA         SUNNY     81  55  41 W7        30.01F
AUSTIN         SUNNY     82  55  39 W8        30.07F
PRESTON        SUNNY     78  58  50 W10       30.07F
$$
ABBREVIATIONS USED IN REMARKS
   TC - TEMPERATURES IN CELSIUS
  WCI - WIND CHILL INDEX
   HX - HEAT INDEX
  VSB - VISIBILITY
$$


USA.gov is the U.S. government's official web portal to all federal, state and local government web resources and services.